Flight Track Log - Related Links

Times and Time Zones

All times are in EDT time to prevent confusion due to time zone crossing. See the CTL22 flight status page for this flight to view local times or setup timezone preferences in your user account.

Time Position Orientation Groundspeed Altitude Reporting Facility
EDT Latitude Longitude Course Direction KTS MPH feet Rate Location/Type
Tue 08:18:21 PM 42.1722 -85.4014 115° Southeast 152 175 3,700  Level Chicago Center
Tue 08:19:23 PM 42.1508 -85.3439 117° Southeast 165 190 4,100 484 Climbing Chicago Center
Tue 08:20:25 PM 42.1231 -85.2706 117° Southeast 178 205 4,700 484 Climbing Chicago Center
Tue 08:21:00 PM 42.1680 -85.1576 103° East  Level Estimated
Tue 08:21:27 PM 42.0994 -85.2078 117° Southeast 185 213 5,100  Level Chicago Center
Tue 08:22:00 PM 42.1568 -85.0920 103° East  Level Estimated
Tue 08:22:29 PM 42.0792 -85.1453 114° Southeast 183 211 5,500  Level Chicago Center
Tue 08:23:31 PM 42.0575 -85.0817 115° Southeast 185 213 6,000 435 Climbing Chicago Center
Tue 08:24:33 PM 42.0361 -85.0186 115° Southeast 185 213 6,400 384 Climbing Chicago Center
Tue 08:25:36 PM 42.0175 -84.9525 111° Southeast 187 215 6,800 336 Climbing Chicago Center
Tue 08:26:38 PM 41.9900 -84.8767 116° Southeast 187 215 7,100 195 Climbing Chicago Center
Tue 08:27:39 PM 41.9672 -84.8056 113° Southeast 200 230 7,200 -48 Climbing Chicago Center
Tue 08:28:42 PM 41.9436 -84.7361 115° Southeast 204 235 7,000 -96 Descending Chicago Center
Tue 08:29:44 PM 41.9153 -84.6675 119° Southeast 208 239 7,000 48 Level Chicago Center
Tue 08:30:46 PM 41.8906 -84.6006 116° Southeast 202 232 7,100 97 Climbing Chicago Center
Tue 08:31:48 PM 41.8644 -84.5350 118° Southeast 199 229 7,200  Climbing Chicago Center
Tue 08:32:50 PM 41.8333 -84.4550 118° Southeast 200 230 7,100  Descending Chicago Center
Tue 08:33:52 PM 41.8097 -84.3872 115° Southeast 200 230 7,200  Climbing Chicago Center
Tue 08:34:54 PM 41.7831 -84.3214 118° Southeast 201 231 7,100  Descending Chicago Center
Tue 08:35:56 PM 41.7567 -84.2569 119° Southeast 199 229 7,200  Climbing Chicago Center
Tue 08:36:58 PM 41.7314 -84.1897 117° Southeast 200 230 7,100  Descending Chicago Center
Tue 08:38:00 PM 41.7064 -84.1239 117° Southeast 200 230 7,200 97 Climbing Chicago Center

Login

Don't have an account? Register now (free) for customized features, flight alerts, and more!